S51BR Weather Reports


time (UTC)temp
C
wind
direction
speed
KPH
gust
KPH
rain 1hr
cm
rain 24hr
cm
rain mn
cm
humidity
%
barometer
mb
20260506121003 15 344 1.6 9.7 0.00 0.00 0.00 74 1012.0
20260506120503 15 199 3.2 6.4 0.00 0.00 0.00 74 1012.0
20260506120017 15 197 3.2 6.4 0.00 0.00 0.00 74 1012.0
20260506115509 15 319 1.6 6.4 0.00 0.00 0.00 75 1011.9
20260506115007 15 286 1.6 4.8 0.00 0.00 0.00 74 1012.0
20260506114521 15 321 1.6 4.8 0.00 0.00 0.00 73 1011.9
20260506114008 15 312 1.6 3.2 0.00 0.00 0.00 76 1012.1
20260506113511 15 160 0.0 6.4 0.00 0.00 0.00 76 1012.1
20260506113023 15 195 1.6 6.4 0.00 0.00 0.00 74 1012.2
20260506112512 15 328 1.6 9.7 0.00 0.00 0.00 74 1012.2
20260506112009 15 333 3.2 9.7 0.00 0.00 0.00 73 1012.3
20260506111529 15 356 1.6 9.7 0.00 0.00 0.00 73 1012.3
20260506111007 15 307 3.2 6.4 0.00 0.00 0.00 72 1012.2
20260506110507 15 357 3.2 6.4 0.00 0.00 0.00 72 1012.3
20260506110013 15 173 1.6 6.4 0.00 0.00 0.00 72 1012.4
20260506105509 15 197 3.2 6.4 0.00 0.00 0.00 71 1012.4
20260506105005 15 316 1.6 6.4 0.00 0.00 0.00 72 1012.4
20260506104518 15 181 3.2 6.4 0.00 0.00 0.00 72 1012.4
20260506104008 15 207 3.2 6.4 0.00 0.00 0.00 72 1012.5
20260506103508 15 292 1.6 9.7 0.00 0.00 0.00 73 1012.7
20260506103023 15 205 3.2 9.7 0.00 0.00 0.00 71 1012.6
20260506102510 15 189 1.6 8.0 0.00 0.00 0.00 73 1012.7
20260506102009 15 172 3.2 6.4 0.00 0.00 0.00 73 1012.7
20260506101526 15 160 3.2 6.4 0.00 0.00 0.00 73 1012.8
20260506101015 15 193 3.2 6.4 0.00 0.00 0.00 73 1012.7
20260506100509 15 211 1.6 6.4 0.00 0.00 0.00 73 1012.8
20260506100027 14 318 1.6 6.4 0.00 0.00 0.00 73 1012.9
20260506095511 14 194 1.6 6.4 0.00 0.00 0.00 74 1012.9
20260506095005 14 1 1.6 6.4 0.00 0.00 0.00 75 1012.9
20260506094515 14 186 1.6 3.2 0.00 0.00 0.00 77 1012.9
20260506094009 14 176 1.6 3.2 0.00 0.00 0.00 78 1012.9
20260506093510 14 23 1.6 11.3 0.00 0.00 0.00 77 1012.9
20260506093034 14 25 4.8 11.3 0.00 0.00 0.00 76 1012.8
20260506092507 13 214 1.6 6.4 0.00 0.00 0.00 77 1012.7
20260506092009 13 202 3.2 8.0 0.00 0.00 0.00 77 1012.8
20260506091524 13 11 3.2 8.0 0.00 0.00 0.00 78 1012.9
20260506091009 13 210 3.2 8.0 0.00 0.00 0.00 79 1012.9
20260506090510 13 295 3.2 8.0 0.00 0.00 0.00 78 1013.0
20260506090025 13 3 3.2 8.0 0.00 0.00 0.00 78 1013.0
20260506085508 14 266 3.2 11.3 0.00 0.00 0.00 77 1013.0
20260506085009 14 349 3.2 11.3 0.00 0.00 0.00 76 1013.0
20260506084527 15 198 3.2 8.0 0.00 0.00 0.00 75 1012.9
20260506084012 15 288 3.2 9.7 0.00 0.00 0.00 74 1012.7
20260506083509 15 323 3.2 9.7 0.00 0.00 0.00 74 1012.6
20260506083017 15 303 3.2 6.4 0.00 0.00 0.00 74 1012.5
20260506082511 15 305 1.6 6.4 0.00 0.00 0.00 75 1012.5
20260506082012 15 335 1.6 4.8 0.00 0.00 0.00 76 1012.3
20260506081522 15 315 1.6 4.8 0.00 0.00 0.00 75 1012.3
20260506081013 15 81 1.6 3.2 0.00 0.00 0.00 76 1012.2
20260506080509 15 8 1.6 3.2 0.00 0.00 0.00 77 1012.2
20260506073512 15 313 0.0 4.8 0.00 0.00 0.00 74 1012.2
20260506073027 15 345 1.6 4.8 0.00 0.00 0.00 73 1012.3
20260506072507 16 305 1.6 4.8 0.00 0.00 0.00 75 1012.3
20260506072015 15 18 1.6 4.8 0.00 0.00 0.00 76 1012.3
20260506071518 15 252 1.6 6.4 0.00 0.00 0.00 77 1012.3
20260506071006 14 357 1.6 6.4 0.00 0.00 0.00 79 1012.5
20260506070510 13 29 1.6 3.2 0.00 0.00 0.00 82 1012.5
20260506062507 12 165 0.0 1.6 0.00 0.00 0.00 83 1012.5
20260506062011 12 109 0.0 1.6 0.00 0.00 0.00 83 1012.4
20260506061514 12 106 0.0 3.2 0.00 0.00 0.00 83 1012.4
20260506061007 12 151 0.0 3.2 0.00 0.00 0.00 83 1012.4
20260506060507 12 150 0.0 1.6 0.00 0.00 0.00 82 1012.4
20260506051008 11 120 0.0 1.6 0.00 0.00 0.00 84 1012.1
20260506050507 11 120 0.0 1.6 0.00 0.00 0.00 84 1012.2
20260506045007 11 120 0.0 1.6 0.00 0.00 0.00 85 1012.2
20260506044521 11 120 0.0 1.6 0.00 0.00 0.00 85 1012.2
20260506044003 11 120 0.0 3.2 0.00 0.00 0.00 85 1012.1
20260506043506 11 120 0.0 3.2 0.00 0.00 0.00 85 1012.0
20260506043010 11 120 0.0 1.6 0.00 0.00 0.00 86 1012.0
20260506042504 11 120 0.0 1.6 0.00 0.00 0.00 85 1011.9
20260506042004 11 120 0.0 1.6 0.00 0.00 0.00 85 1012.0
20260506041509 11 120 0.0 1.6 0.00 0.00 0.00 85 1011.9
20260506041004 11 120 0.0 1.6 0.00 0.00 0.00 84 1011.9
20260506040511 11 120 0.0 1.6 0.00 0.00 0.00 84 1011.9
20260506040018 11 120 0.0 1.6 0.00 0.00 0.00 84 1011.9
20260506035508 10 120 0.0 1.6 0.00 0.00 0.00 84 1011.8
20260506035005 10 120 0.0 1.6 0.00 0.00 0.00 84 1011.8
20260506034518 10 120 0.0 3.2 0.00 0.00 0.00 83 1011.8
20260506034009 11 120 0.0 3.2 0.00 0.00 0.00 83 1011.8
20260506033507 11 120 0.0 1.6 0.00 0.00 0.00 83 1012.0
20260506033025 11 120 0.0 1.6 0.00 0.00 0.00 83 1012.1
20260506032504 11 120 0.0 1.6 0.00 0.00 0.00 82 1012.0
20260506032006 11 120 0.0 1.6 0.00 0.00 0.00 82 1011.9
20260506031507 11 120 0.0 1.6 0.00 0.00 0.00 82 1012.0
20260506031005 11 120 0.0 3.2 0.00 0.00 0.00 82 1012.0
20260506030504 11 120 0.0 3.2 0.00 0.00 0.00 81 1012.0
20260506030012 11 90 0.0 1.6 0.00 0.00 0.00 81 1012.1
20260506025511 11 82 0.0 1.6 0.00 0.00 0.00 80 1012.0
20260506025008 11 82 0.0 1.6 0.00 0.00 0.00 80 1012.1
20260506024517 11 82 0.0 1.6 0.00 0.00 0.00 80 1012.2
20260506024010 11 82 0.0 1.6 0.00 0.00 0.00 80 1012.2
20260506023511 11 82 0.0 1.6 0.00 0.00 0.00 80 1012.2
20260506023022 11 82 0.0 1.6 0.00 0.00 0.00 80 1012.3
20260506022509 11 82 0.0 1.6 0.00 0.00 0.00 80 1012.3
20260506022008 11 82 0.0 0.0 0.00 0.00 0.00 79 1012.3
20260506021525 11 82 0.0 0.0 0.00 0.00 0.00 80 1012.3
20260506021004 12 82 0.0 1.6 0.00 0.00 0.00 79 1012.4
20260506020504 12 82 0.0 1.6 0.00 0.00 0.00 79 1012.4
20260506020011 11 82 0.0 1.6 0.00 0.00 0.00 79 1012.3
20260506015505 11 82 0.0 0.0 0.00 0.00 0.00 80 1012.3
20260506015005 11 82 0.0 1.6 0.00 0.00 0.00 80 1012.2
20260506014514 11 82 0.0 1.6 0.00 0.00 0.00 81 1012.2
20260506014007 11 82 0.0 1.6 0.00 0.00 0.00 81 1012.1
20260506013511 11 82 0.0 1.6 0.00 0.00 0.00 81 1012.1
20260506013021 11 77 0.0 3.2 0.00 0.00 0.00 82 1012.1
20260506012509 11 77 0.0 3.2 0.00 0.00 0.00 83 1012.1
20260506012009 11 105 0.0 0.0 0.00 0.00 0.00 82 1012.0
20260506011526 11 105 0.0 1.6 0.00 0.00 0.00 83 1012.1
20260506011008 11 105 0.0 1.6 0.00 0.00 0.00 82 1012.1
20260506010509 11 105 0.0 1.6 0.00 0.00 0.00 83 1012.1
20260506010029 11 90 1.6 1.6 0.00 0.00 0.00 84 1012.1
20260506005507 11 90 0.0 1.6 0.00 0.00 0.00 83 1012.0
20260506005006 11 90 0.0 1.6 0.00 0.00 0.00 83 1012.0
20260506004521 11 90 0.0 1.6 0.00 0.00 0.00 83 1012.0
20260506004006 11 90 0.0 1.6 0.00 0.00 0.00 83 1011.9
20260506003507 11 90 0.0 1.6 0.00 0.00 0.00 83 1012.0
20260506003019 11 90 0.0 1.6 0.00 0.00 0.00 83 1012.0
20260506002509 11 90 0.0 1.6 0.00 0.00 0.00 83 1012.1
20260506002009 11 90 0.0 1.6 0.00 0.00 0.00 83 1012.2
20260506001521 11 90 0.0 1.6 0.00 0.00 0.00 83 1012.2
20260506001007 11 90 0.0 1.6 0.00 0.00 0.00 82 1012.3
20260506000507 11 90 0.0 1.6 0.00 0.00 0.00 82 1012.2
20260506000041 11 90 0.0 1.6 0.00 0.00 0.00 81 1012.2
20260505235507 11 90 0.0 1.6 0.00 0.00 0.00 81 1012.3
20260505235011 11 90 0.0 1.6 0.00 0.00 0.00 81 1012.3
20260505234512 11 90 0.0 1.6 0.00 0.00 0.00 81 1012.3
20260505234005 11 90 0.0 1.6 0.00 0.00 0.00 81 1012.1
20260505233505 11 90 0.0 1.6 0.00 0.00 0.00 81 1012.2
20260505233013 11 90 0.0 1.6 0.00 0.00 0.00 81 1012.4
20260505232505 11 90 0.0 1.6 0.00 0.00 0.00 81 1012.4
20260505232006 11 90 0.0 1.6 0.00 0.00 0.00 82 1012.5
20260505231516 11 90 0.0 1.6 0.00 0.00 0.00 82 1012.5
20260505231006 11 90 0.0 1.6 0.00 0.00 0.00 82 1012.7
20260505230506 10 90 0.0 1.6 0.00 0.00 0.00 82 1012.7
20260505230034 10 63 0.0 1.6 0.00 0.00 0.00 82 1012.7
20260505225510 11 63 0.0 1.6 0.00 0.00 0.00 81 1012.7
20260505225007 11 23 0.0 0.0 0.00 0.00 0.00 81 1012.7
20260505224527 11 23 0.0 1.6 0.00 0.00 0.00 81 1012.7
20260505224010 11 23 0.0 1.6 0.00 0.00 0.00 81 1012.7
20260505223511 11 23 0.0 3.2 0.00 0.00 0.00 81 1012.8
20260505223011 11 23 0.0 3.2 0.00 0.00 0.00 81 1012.7
20260505222508 11 48 1.6 3.2 0.00 0.00 0.00 81 1012.8
20260505222010 11 47 0.0 4.8 0.00 0.00 0.00 81 1012.8
20260505221516 11 48 0.0 4.8 0.00 0.00 0.00 81 1012.8
20260505221006 11 29 0.0 3.2 0.00 0.00 0.00 81 1012.9
20260505220506 11 28 0.0 4.8 0.00 0.00 0.00 81 1012.9
20260505220022 11 79 0.0 6.4 0.00 0.00 0.00 81 1012.9
20260505215508 11 17 1.6 6.4 0.00 0.00 0.00 81 1013.0
20260505215007 11 14 1.6 6.4 0.00 0.00 0.00 81 1013.0
20260505214524 11 36 1.6 4.8 0.00 0.00 0.00 81 1013.0
20260505214001 11 30 1.6 4.8 0.00 0.00 0.00 81 1013.1
20260505213503 11 14 1.6 4.8 0.00 0.00 0.00 82 1013.1
20260505213021 11 44 1.6 4.8 0.00 0.00 0.00 83 1013.1
20260505212506 11 49 1.6 3.2 0.00 0.00 0.00 82 1013.2
20260505212005 11 13 0.0 3.2 0.00 0.00 0.00 82 1013.2
20260505211510 11 33 0.0 6.4 0.00 0.00 0.00 81 1013.2
20260505211004 11 32 1.6 6.4 0.00 0.00 0.00 81 1013.3
20260505210503 11 1 0.0 3.2 0.00 0.00 0.00 80 1013.3
20260505210020 11 39 0.0 3.2 0.00 0.00 0.00 80 1013.4
20260505205504 11 37 0.0 3.2 0.00 0.00 0.00 81 1013.4
20260505205005 11 75 0.0 1.6 0.00 0.00 0.00 80 1013.4
20260505204508 11 53 0.0 1.6 0.00 0.00 0.00 79 1013.4
20260505204003 11 53 0.0 1.6 0.00 0.00 0.00 79 1013.4
20260505203503 11 42 0.0 3.2 0.00 0.00 0.00 79 1013.3
20260505203013 11 42 0.0 3.2 0.00 0.00 0.00 79 1013.4
20260505202503 11 11 0.0 3.2 0.00 0.00 0.00 79 1013.4
20260505202004 12 34 1.6 6.4 0.00 0.00 0.00 78 1013.4
20260505201507 12 314 3.2 6.4 0.00 0.00 0.00 78 1013.4
20260505201003 12 244 1.6 6.4 0.00 0.00 0.00 78 1013.2
20260505200505 12 6 1.6 6.4 0.00 0.00 0.00 78 1013.4
20260505200019 12 338 0.0 4.8 0.00 0.00 0.00 78 1013.4
20260505195503 12 21 1.6 4.8 0.00 0.00 0.00 78 1013.4
20260505195006 12 34 1.6 4.8 0.00 0.00 0.00 78 1013.4
20260505194508 12 326 1.6 3.2 0.00 0.00 0.00 78 1013.4
20260505194006 12 11 0.0 3.2 0.00 0.00 0.00 78 1013.3
20260505193507 12 33 0.0 4.8 0.00 0.00 0.00 77 1013.4
20260505193022 12 33 1.6 4.8 0.00 0.00 0.00 77 1013.2
20260505192507 12 31 0.0 3.2 0.00 0.00 0.00 76 1013.1
20260505192003 13 37 1.6 3.2 0.00 0.00 0.00 75 1013.1
20260505191512 13 320 1.6 3.2 0.00 0.00 0.00 75 1013.1
20260505191004 13 48 0.0 1.6 0.00 0.00 0.00 75 1013.1
20260505190504 13 48 0.0 1.6 0.00 0.00 0.00 74 1013.1
20260505190010 13 48 0.0 1.6 0.00 0.00 0.00 74 1013.0
20260505185506 13 49 0.0 1.6 0.00 0.00 0.00 74 1013.0
20260505185005 13 35 0.0 1.6 0.00 0.00 0.00 73 1012.9
20260505184510 13 35 0.0 3.2 0.00 0.00 0.00 73 1012.9
20260505184004 13 35 0.0 3.2 0.00 0.00 0.00 72 1012.9
20260505183507 13 32 0.0 3.2 0.00 0.00 0.00 72 1012.8
20260505183013 13 32 0.0 3.2 0.00 0.00 0.00 72 1012.8
20260505182504 13 37 1.6 3.2 0.00 0.00 0.00 72 1012.8
20260505182007 13 14 1.6 3.2 0.00 0.00 0.00 72 1012.8
20260505181512 13 42 0.0 1.6 0.00 0.00 0.00 71 1012.8
20260505181004 13 44 0.0 3.2 0.00 0.00 0.00 71 1012.8
20260505180503 13 1 0.0 3.2 0.00 0.00 0.00 71 1012.8
20260505180008 13 30 0.0 4.8 0.00 0.00 0.00 71 1012.9
20260505175504 13 21 1.6 4.8 0.00 0.00 0.00 70 1012.9
20260505175004 13 20 1.6 3.2 0.00 0.00 0.00 70 1012.9
20260505174508 13 23 1.6 3.2 0.00 0.00 0.00 70 1012.9
20260505174010 13 33 0.0 0.0 0.00 0.00 0.00 71 1012.9
20260505173506 13 33 0.0 1.6 0.00 0.00 0.00 71 1012.9
20260505173020 13 33 0.0 1.6 0.00 0.00 0.00 70 1013.0
20260505172509 13 33 0.0 3.2 0.00 0.00 0.00 70 1012.9
20260505172007 13 33 1.6 3.2 0.00 0.00 0.00 69 1013.0
20260505171517 13 34 0.0 1.6 0.00 0.00 0.00 69 1013.0
20260505171006 13 34 0.0 1.6 0.00 0.00 0.00 70 1013.0
20260505170506 13 34 0.0 3.2 0.00 0.00 0.00 70 1013.0
20260505170023 13 35 1.6 4.8 0.00 0.00 0.00 69 1013.0
20260505165507 13 38 1.6 4.8 0.00 0.00 0.00 69 1013.0
20260505165003 13 34 0.0 6.4 0.00 0.00 0.00 69 1013.1
20260505164510 13 8 1.6 6.4 0.00 0.00 0.00 68 1013.1
20260505164005 13 29 1.6 6.4 0.00 0.00 0.00 68 1013.1
20260505163506 13 344 3.2 6.4 0.00 0.00 0.00 69 1013.1
20260505163011 13 319 1.6 6.4 0.00 0.00 0.00 68 1013.1
20260505162505 13 198 3.2 6.4 0.00 0.00 0.00 69 1013.2
20260505162007 13 322 1.6 9.7 0.00 0.00 0.00 68 1013.2
20260505161514 14 1 3.2 9.7 0.00 0.00 0.00 68 1013.2
20260505161007 14 9 4.8 9.7 0.00 0.00 0.00 68 1013.2
20260505160511 14 323 3.2 12.9 0.00 0.00 0.00 67 1013.3
20260505153016 14 355 1.6 9.7 0.00 0.00 0.00 65 1013.4
20260505152507 14 321 3.2 9.7 0.00 0.00 0.00 65 1013.4
20260505152011 14 303 3.2 8.0 0.00 0.00 0.00 64 1013.4
20260505151512 14 345 3.2 8.0 0.00 0.00 0.00 64 1013.5
20260505151006 14 311 4.8 12.9 0.00 0.00 0.00 64 1013.5
20260505150506 14 14 4.8 14.5 0.00 0.00 0.00 64 1013.5
20260505140505 15 47 6.4 12.9 0.00 0.00 0.00 59 1013.8
20260505125008 17 314 1.6 6.4 0.00 0.00 0.00 61 1014.2
20260505124516 17 348 1.6 6.4 0.00 0.00 0.00 63 1014.3
20260505124007 17 359 1.6 6.4 0.00 0.00 0.00 62 1014.3
20260505123509 17 348 4.8 6.4 0.00 0.00 0.00 63 1014.3
20260505123032 17 13 1.6 4.8 0.00 0.00 0.00 64 1014.4
20260505122503 16 226 3.2 8.0 0.00 0.00 0.00 66 1014.4
20260505122004 16 1 3.2 8.0 0.00 0.00 0.00 69 1014.4
20260505121510 15 242 1.6 4.8 0.00 0.00 0.00 67 1014.4